Weather History for Charlottesville, VA

Change the Weather History Date:

Sunday, October 31, 2010

  Actual Average Record
Temperature  
Mean Temperature 56 °F 52 °F  
Max Temperature 72 °F 63 °F 86 °F (1996)
Min Temperature 39 °F 40 °F 26 °F (1917)
Degree Days  
Heating Degree Days 9 13  
Month to date heating degree days 179 290  
Since 1 July heating degree days 187 349  
Cooling Degree Days 0 0  
Month to date cooling degree days 25 13  
Year to date cooling degree days 1713 1034  
Growing Degree Days 5 (Base 50)    
Moisture  
Dew Point 36 °F    
Average Humidity 59    
Maximum Humidity 92    
Minimum Humidity 26    
Precipitation  
Precipitation 0.00 in 0.09 in 2.52 in (1970)
Month to date precipitation 2.13 3.11  
Year to date precipitation 30.07 35.73  
Sea Level Pressure  
Sea Level Pressure 29.93 in    
Wind  
Wind Speed 4 mph (East)    
Max Wind Speed 12 mph    
Max Gust Speed 18 mph    
Visibility 10 miles    
Events      
T = Trace of Precipitation, MM = Missing Value Source: NWS Daily Summary

Daily Weather History Graph

Daily Weather History Graph

Search for Another Location

Airport:

Trip Planner

Search our weather history database for the weather conditions in past years. The results will help you decide how hot, cold, wet, or windy it might be!

Date:

Astronomy

Oct. 31, 2010 Rise Set
Actual Time 7:38 AM EDT 6:15 PM EDT
Civil Twilight 7:11 AM EDT 6:42 PM EDT
Nautical Twilight 6:40 AM EDT 7:14 PM EDT
Astronomical Twilight 6:09 AM EDT 7:44 PM EDT
Moon 1:08 AM EDT (10/31) 2:45 PM EDT (10/31)
Length of Visible Light 11h 31m
Length of Day
10h 37m
Last Quarter, 37% of the Moon is Illuminated
Oct 31
Last Quarter
Nov 6
New
Nov 13
First Quarter
Nov 21
Full
Nov 28
Last Quarter

Hourly Weather History & Observations

Time (EDT) Temp. Dew Point Humidity Pressure Visibility Wind Dir Wind Speed Gust Speed Precip Events Conditions
12:53 AM 46.9 °F 39.0 °F 74% 29.83 in 10.0 mi Calm Calm - N/A   Clear
1:53 AM 45.0 °F 39.0 °F 80% 29.83 in 10.0 mi Calm Calm - N/A   Clear
2:53 AM 42.1 °F 37.9 °F 85% 29.84 in 10.0 mi Calm Calm - N/A   Clear
3:53 AM 39.9 °F 37.0 °F 89% 29.83 in 10.0 mi Calm Calm - N/A   Clear
4:53 AM 41.0 °F 37.0 °F 86% 29.83 in 10.0 mi Calm Calm - N/A   Clear
5:53 AM 39.0 °F 36.0 °F 89% 29.85 in 10.0 mi Calm Calm - N/A   Clear
6:53 AM 53.1 °F 30.0 °F 41% 29.85 in 10.0 mi SW 3.5 mph - N/A   Clear
8:53 AM 53.1 °F 32.0 °F 45% 29.90 in 10.0 mi Calm Calm - N/A   Clear
9:53 AM 59.0 °F 36.0 °F 42% 29.90 in 10.0 mi Calm Calm - N/A   Clear
10:53 AM 64.0 °F 36.0 °F 35% 29.90 in 10.0 mi Variable 3.5 mph - N/A   Clear
11:53 AM 66.0 °F 32.0 °F 28% 29.90 in 10.0 mi West 5.8 mph - N/A   Clear
12:53 PM 66.9 °F 33.1 °F 28% 29.89 in 10.0 mi Variable 3.5 mph - N/A   Clear
1:53 PM 71.1 °F 35.1 °F 27% 29.88 in 10.0 mi Variable 3.5 mph - N/A   Clear
2:53 PM 70.0 °F 34.0 °F 27% 29.88 in 10.0 mi Calm Calm - N/A   Clear
3:53 PM 70.0 °F 36.0 °F 29% 29.88 in 10.0 mi Variable 4.6 mph - N/A   Clear
4:53 PM 70.0 °F 34.0 °F 27% 29.91 in 10.0 mi Variable 4.6 mph - N/A   Clear
5:53 PM 64.0 °F 39.9 °F 41% 29.95 in 10.0 mi Calm Calm - N/A   Clear
6:45 PM 59.0 °F 39.2 °F 48% 29.99 in 10.0 mi East 11.5 mph 18.4 mph N/A   Clear
6:53 PM 59.0 °F 37.9 °F 46% 30.00 in 10.0 mi East 11.5 mph 18.4 mph N/A   Clear
7:53 PM 55.0 °F 39.0 °F 55% 30.05 in 10.0 mi East 11.5 mph 16.1 mph N/A   Clear
8:53 PM 51.1 °F 37.9 °F 61% 30.08 in 10.0 mi East 9.2 mph - N/A   Clear
9:53 PM 50.0 °F 37.0 °F 61% 30.11 in 10.0 mi NNE 9.2 mph - N/A   Clear
10:53 PM 48.9 °F 36.0 °F 61% 30.14 in 10.0 mi Calm Calm - N/A   Clear
11:53 PM 45.0 °F 36.0 °F 71% 30.17 in 10.0 mi Calm Calm - N/A   Clear